STARLINK-31792, 60132

Orbit data source: Space-Track

STARLINK-31792, 60132 is a payload satellite owned by SpaceX/Seattle (US) in LEO that was launched on Mon, 24 Jun 2024 UTC via an FALCON 9 launch vehicle from the Air Force Western Test Range (AFWTR). Payload-class satellites include a variety of spacecraft equipped with specific instruments for various scientific and technological missions. These include communications satellites like Starlink; space stations such as the ISS; scientific satellites like the Hubble; Earth observation satellites from companies like Planet Labs, Umbra, and HawkEye 360; GPS; miniature CubeSats for education and research; and military/defense satellites.

Loading next visibility...
Identifier
60132, 2024-118V
Orbit
LEO
Country
Flag of USUS
Related business
Manufacturer
SpaceX/Seattle
Mission
Operational Commercial Communications
Bus & Motor
STARLINK V2M, Unknown motor
Mass
730 kg wet, ~700 kg dry
Launch date (UTC)
2024-06-24 (2 years ago)
Launch vehicle
FALCON 9
Launch site
Air Force Western Test Range (AFWTR)
Object type
Payload
Rocket body
Debris
Shape & HBR
Box + 2 Pan, 17.7 m
Radar Cross Section
33.884 m², Large (>1 m²)

Expand to show TLE details & history
Last TLE update: 12 hours ago

TLE from 12 hours ago
0 STARLINK-31792
1 60132U 24118V   26036.77908583 -.00004680  00000-0 -14620-3 0  9998
2 60132  53.1601 172.5581 0001385  80.5333 279.5824 15.30150738 90849
Epoch: 2026-02-05T18:41Z
TLE epoch observation values (Epoch: 2026-02-05T18:41:53.015Z)
Latitude
-0.00005°
Longitude
116.16075°
Altitude
476.104 km
Speed
7.629 km/s
True Right ascension
11h 30m 13s
True Declination
0° 00' 00"
Sunlit
Object was in full shadow at epoch
Visualization orbit readout
Latitude
Unknown
Longitude
Unknown
Altitude
Unknown
Speed
Unknown
Apparent Right ascension
Unknown
Apparent Declination
Unknown
Sunlit
N/A
Visualization observer readout
Local Sidereal Time
08:35:41
Azimuth
Unknown
Elevation
Unknown
Doppler factor
Unknown
Orbital elements
Apogee altitude
476.568 km
Perigee altitude
474.669 km
Semi-major axis
6,853.756 km
Eccentricity
0.00014
Inclination
53.1601°
RAAN
172.5581°
Arg. of periapsis
80.5333°
True anomaly
279.56675°
Mean anomaly
279.5824°
Eccentric anomaly
279.57458°
Mean motion
3.82517 °/min
Orbital period
94.11 mins
BSTAR
-0.0001462
Loading maneuver chart data...
Computing Atmospheric mass density...
Loading historical data...
Loading historical data...
Loading historical data...
Loading historical data...
Loading historical data...
Loading historical data...
Loading historical data...

Documentation

Showing up to 5 results
|